Location: Brunembert
(50.7122°N, 1.8935°E)
Time: 03:13:27
(UTC+00:00)

Cosmos 405 Rocket - Pass Details

Date: 22 April 2021
Orbit: 489 x 553 km, 81.3° (Epoch: 06 May)

Event Time Altitude Azimuth Distance (km) Brightness Sun altitude
Rises 20:09:58 0° 342° (NNW) 2,726 7.3 -10.7°
Reaches altitude 10° 20:12:13 10° 337° (NNW) 1,820 6.5 -11.0°
Maximum altitude 20:16:03 45° 264° (W) 736 3.8 -11.5°
Drops below altitude 10° 20:19:47 10° 191° (S) 1,771 5.2 -11.9°
Enters shadow 20:21:31 - 186° (S) 2,469 5.8 -12.1°
